BEIDOU-3 IGSO-2 (C39)

Last updated on Mon Jun 22 2026 00:03:31 GMT+0000 (Coordinated Universal Time)

1 44337U 19035A 26172.36139090 -.00000077 00000+0 00000+0 0 9991 2 44337 55.2486 158.8257 0039300 216.3163 144.0827 1.00265382 25714
UTC large
Height (km)
Speed (km/s)
/
Latitude / Longitude
Inclination (degrees)
Orbital Period (minutes)
Azimuth
Elevation
Range (km)
Doppler Factor

Next 0 passes for location: London (51.5072 / 0.1276)

No passes found over London.
BEIDOU-3 IGSO-2 (C39)